KE0BZR Weather Reports


time (UTC)temp
C
wind
direction
speed
KPH
gust
KPH
rain 1hr
cm
rain 24hr
cm
rain mn
cm
humidity
%
barometer
mb
20240227071516 7 248 0.0 0.0 0.00 0.00 0.00 46 993.2
20240227070012 7 248 1.6 8.0 0.00 0.00 0.00 45 993.4
20240227064508 7 211 4.8 11.3 0.00 0.00 0.00 43 993.7
20240227063007 8 240 11.3 14.5 0.00 0.00 0.00 43 993.9
20240227061505 8 213 8.0 17.7 0.00 0.00 0.00 42 994.2
20240227060008 8 238 11.3 22.5 0.00 0.00 0.00 40 994.3
20240227054503 8 225 14.5 20.9 0.00 0.00 0.00 40 994.4
20240227053002 7 215 9.7 17.7 0.00 0.00 0.00 41 994.5
20240227051600 8 232 4.8 9.7 0.00 0.00 0.00 40 994.7
20240227050059 8 236 11.3 19.3 0.00 0.00 0.00 39 995.1
20240227044559 8 230 8.0 16.1 0.00 0.00 0.00 38 995.1
20240227043057 9 230 8.0 17.7 0.00 0.00 0.00 36 995.3
20240227041557 10 245 8.0 22.5 0.00 0.00 0.00 34 995.5
20240227040127 10 229 14.5 27.4 0.00 0.00 0.00 33 995.6
20240227034556 10 257 12.9 27.4 0.00 0.00 0.00 31 995.5
20240227033057 9 229 8.0 14.5 0.00 0.00 0.00 28 995.6
20240227031554 10 259 0.0 0.0 0.00 0.00 0.00 26 995.6
20240227030056 10 294 0.0 0.0 0.00 0.00 0.00 25 995.6
20240227024556 10 344 0.0 0.0 0.00 0.00 0.00 25 995.5
20240227023052 11 218 4.8 9.7 0.00 0.00 0.00 23 995.3
20240227021605 11 192 0.0 0.0 0.00 0.00 0.00 22 995.2
20240227020052 12 194 0.0 11.3 0.00 0.00 0.00 21 995.1
20240227014551 12 282 4.8 20.9 0.00 0.00 0.00 19 995.0
20240227013051 13 236 6.4 19.3 0.00 0.00 0.00 20 995.2
20240227011552 13 244 12.9 29.0 0.00 0.00 0.00 19 995.1
20240227010053 13 250 14.5 40.2 0.00 0.00 0.00 18 995.0
20240227004549 13 222 8.0 22.5 0.00 0.00 0.00 19 994.9
20240227003048 13 240 9.7 16.1 0.00 0.00 0.00 19 995.0
20240227001547 14 250 9.7 16.1 0.00 0.00 0.00 19 995.2
20240227000046 14 214 8.0 22.5 0.00 0.00 0.00 19 995.2
20240226234545 15 213 12.9 33.8 0.00 0.00 0.00 19 995.2
20240226233045 15 244 22.5 37.0 0.00 0.00 0.00 18 995.3
20240226231542 15 221 20.9 35.4 0.00 0.00 0.00 18 995.4
20240226230040 15 221 16.1 30.6 0.00 0.00 0.00 19 995.6
20240226224553 15 240 25.7 45.1 0.00 0.00 0.00 20 995.8
20240226223038 15 225 24.1 48.3 0.00 0.00 0.00 20 996.0
20240226221535 15 244 22.5 46.7 0.00 0.00 0.00 20 996.0
20240226220035 15 219 16.1 43.5 0.00 0.00 0.00 19 996.1
20240226214535 15 322 14.5 29.0 0.00 0.00 0.00 20 996.4
20240226213034 15 282 16.1 27.4 0.00 0.00 0.00 19 996.4
20240226211531 15 291 14.5 29.0 0.00 0.00 0.00 19 996.8
20240226210030 16 292 16.1 35.4 0.00 0.00 0.00 19 996.8
20240226204527 16 277 12.9 38.6 0.00 0.00 0.00 17 997.0
20240226203024 16 288 11.3 27.4 0.00 0.00 0.00 17 997.4
20240226201522 15 245 32.2 49.9 0.00 0.00 0.00 16 997.7
20240226200020 15 232 4.8 20.9 0.00 0.00 0.00 17 997.8
20240226194529 15 299 14.5 27.4 0.00 0.00 0.00 17 998.0
20240226193018 15 264 17.7 38.6 0.00 0.00 0.00 17 998.5
20240226191514 15 312 17.7 38.6 0.00 0.00 0.00 17 998.8
20240226190017 15 336 14.5 35.4 0.00 0.00 0.00 17 998.9
20240226184509 15 265 20.9 38.6 0.00 0.00 0.00 18 999.5
20240226183008 15 299 9.7 25.7 0.00 0.00 0.00 18 999.6
20240226181504 15 254 19.3 32.2 0.00 0.00 0.00 17 999.8
20240226180002 15 237 17.7 37.0 0.00 0.00 0.00 18 1000.0
20240226174601 15 239 17.7 35.4 0.00 0.00 0.00 19 1000.0
20240226173056 15 224 16.1 32.2 0.00 0.00 0.00 20 1000.2
20240226171553 15 178 12.9 30.6 0.00 0.00 0.00 20 1000.2
20240226170050 14 315 11.3 29.0 0.00 0.00 0.00 22 1000.3
20240226164559 13 221 11.3 32.2 0.00 0.00 0.00 23 1000.7
20240226163043 13 267 19.3 40.2 0.00 0.00 0.00 22 1000.7
20240226161547 13 248 22.5 40.2 0.00 0.00 0.00 24 1001.0
20240226160035 13 236 24.1 37.0 0.00 0.00 0.00 25 1001.0
20240226154530 12 239 11.3 24.1 0.00 0.00 0.00 33 1001.4
20240226153025 11 217 17.7 37.0 0.00 0.00 0.00 32 1001.4
20240226151528 11 195 6.4 16.1 0.00 0.00 0.00 36 1001.5
20240226150018 10 216 8.0 16.1 0.00 0.00 0.00 36 1001.5
20240226144524 9 249 6.4 17.7 0.00 0.00 0.00 38 1001.7
20240226143010 7 215 6.4 14.5 0.00 0.00 0.00 41 1001.6
20240226141505 6 245 6.4 11.3 0.00 0.00 0.00 42 1001.5
20240226140101 5 236 3.2 6.4 0.00 0.00 0.00 43 1001.5
20240226134559 6 315 0.0 0.0 0.00 0.00 0.00 41 1001.3
20240226133057 5 316 1.6 6.4 0.00 0.00 0.00 41 1001.3
20240226131610 6 280 0.0 0.0 0.00 0.00 0.00 40 1001.4
20240226130112 6 302 0.0 11.3 0.00 0.00 0.00 39 1001.4
20240226124554 6 319 3.2 9.7 0.00 0.00 0.00 39 1001.4
20240226123052 5 309 3.2 12.9 0.00 0.00 0.00 39 1001.4
20240226121550 5 301 0.0 0.0 0.00 0.00 0.00 38 1001.4
20240226120050 5 305 1.6 4.8 0.00 0.00 0.00 38 1001.5
20240226114545 5 271 0.0 0.0 0.00 0.00 0.00 36 1001.5
20240226113040 6 271 0.0 0.0 0.00 0.00 0.00 34 1001.5
20240226111537 6 270 0.0 4.8 0.00 0.00 0.00 33 1001.7
20240226110034 7 240 0.0 4.8 0.00 0.00 0.00 32 1002.0
20240226104530 7 300 3.2 11.3 0.00 0.00 0.00 31 1002.0
20240226103027 7 268 6.4 12.9 0.00 0.00 0.00 30 1002.5
20240226101527 8 250 9.7 16.1 0.00 0.00 0.00 30 1002.5
20240226100022 8 257 8.0 19.3 0.00 0.00 0.00 27 1002.6
20240226094515 10 236 8.0 22.5 0.00 0.00 0.00 26 1002.7
20240226093013 10 234 12.9 25.7 0.00 0.00 0.00 24 1002.7
20240226091510 10 269 14.5 24.1 0.00 0.00 0.00 24 1002.9
20240226090007 10 245 14.5 27.4 0.00 0.00 0.00 23 1003.0
20240226084505 11 236 14.5 25.7 0.00 0.00 0.00 23 1003.1
20240226083002 11 227 14.5 25.7 0.00 0.00 0.00 22 1003.2
20240226081559 11 226 14.5 25.7 0.00 0.00 0.00 22 1003.5
20240226080138 11 238 14.5 27.4 0.00 0.00 0.00 21 1003.7
20240226074554 12 279 22.5 49.9 0.00 0.00 0.00 20 1003.8
20240226073056 12 278 25.7 51.5 0.00 0.00 0.00 20 1003.9